Year,Month,Day,Hour,Minute,Value (Times are PST for temperature in C)
2006,09,12,00,00,14.70
2006,09,12,00,01,14.70
2006,09,12,00,02,14.70
2006,09,12,00,03,14.70
2006,09,12,00,04,14.70
2006,09,12,00,05,14.60
2006,09,12,00,06,14.60
2006,09,12,00,07,14.60
2006,09,12,00,08,14.60
2006,09,12,00,09,14.60
2006,09,12,00,10,14.60
2006,09,12,00,11,14.50
2006,09,12,00,12,14.50
2006,09,12,01,02,13.80
2006,09,12,01,03,13.70
2006,09,12,01,04,13.70
2006,09,12,01,05,13.70
2006,09,12,01,06,13.70
2006,09,12,01,07,13.70
2006,09,12,01,08,13.70
2006,09,12,01,09,13.70
2006,09,12,01,10,13.70
2006,09,12,01,11,13.70
2006,09,12,01,12,13.70
2006,09,12,01,13,13.60
2006,09,12,01,14,13.60
2006,09,12,01,15,13.60
2006,09,12,01,16,13.60
2006,09,12,01,17,13.60
2006,09,12,01,18,13.60
2006,09,12,01,19,13.60
2006,09,12,01,20,13.60
2006,09,12,01,21,13.50
2006,09,12,01,22,13.50
2006,09,12,01,23,13.50
2006,09,12,01,24,13.50
2006,09,12,01,25,13.50
2006,09,12,01,26,13.50
2006,09,12,01,27,13.50
2006,09,12,01,28,13.40
2006,09,12,01,29,13.40
2006,09,12,01,30,13.40
2006,09,12,01,31,13.40
2006,09,12,01,32,13.40
2006,09,12,01,33,13.40
2006,09,12,01,34,13.40
2006,09,12,01,35,13.40
2006,09,12,01,36,13.40
2006,09,12,01,37,13.30
2006,09,12,01,38,13.30
2006,09,12,01,39,13.30
2006,09,12,01,40,13.30
2006,09,12,01,41,13.30
2006,09,12,01,42,13.30
2006,09,12,01,43,13.30
2006,09,12,01,44,13.30
2006,09,12,01,45,13.30
2006,09,12,01,46,13.30
2006,09,12,01,47,13.30
2006,09,12,01,48,13.30
2006,09,12,01,49,13.30
2006,09,12,01,50,13.30
2006,09,12,01,51,13.30
2006,09,12,01,52,13.30
2006,09,12,01,53,13.30
2006,09,12,01,54,13.30
2006,09,12,01,55,13.30
2006,09,12,01,56,13.30
2006,09,12,01,57,13.30
2006,09,12,01,58,13.30
2006,09,12,01,59,13.20
2006,09,12,02,00,13.20
2006,09,12,02,01,13.20
2006,09,12,02,02,13.20
2006,09,12,02,03,13.20
2006,09,12,02,04,13.20
2006,09,12,02,05,13.20
2006,09,12,02,06,13.10
2006,09,12,02,07,13.10
2006,09,12,02,08,13.10
2006,09,12,02,09,13.10
2006,09,12,02,10,13.10
2006,09,12,02,11,13.10
2006,09,12,02,12,13.10
2006,09,12,02,13,13.00
2006,09,12,02,14,13.00
2006,09,12,02,15,13.00
2006,09,12,02,16,13.00
2006,09,12,02,17,13.00
2006,09,12,02,18,13.00
2006,09,12,02,19,13.00
2006,09,12,02,20,13.00
2006,09,12,02,21,13.00
2006,09,12,02,22,13.00
2006,09,12,02,23,13.00
2006,09,12,02,24,13.00
2006,09,12,02,25,13.00
2006,09,12,02,26,13.00
2006,09,12,02,27,13.00
2006,09,12,02,28,13.00
2006,09,12,02,29,13.00
2006,09,12,02,30,12.90
2006,09,12,02,31,12.90
2006,09,12,02,32,12.90
2006,09,12,02,33,12.90
2006,09,12,02,34,12.90
2006,09,12,02,35,12.90
2006,09,12,02,36,12.90
2006,09,12,02,37,12.90
2006,09,12,02,38,12.90
2006,09,12,02,39,12.90
2006,09,12,02,40,12.90
2006,09,12,02,41,12.90
2006,09,12,02,42,12.90
2006,09,12,02,43,12.80
2006,09,12,02,44,12.80
2006,09,12,02,45,12.80
2006,09,12,02,46,12.80
2006,09,12,02,47,12.80
2006,09,12,02,48,12.80
2006,09,12,02,49,12.80
2006,09,12,02,50,12.80
2006,09,12,02,51,12.80
2006,09,12,02,52,12.80
2006,09,12,02,53,12.80
2006,09,12,02,54,12.80
2006,09,12,02,55,12.80
2006,09,12,02,56,12.80
2006,09,12,02,57,12.80
2006,09,12,02,58,12.80
2006,09,12,02,59,12.80
2006,09,12,03,00,12.80
2006,09,12,03,01,12.80
2006,09,12,03,02,12.80
2006,09,12,03,03,12.80
2006,09,12,03,04,12.80
2006,09,12,03,05,12.80
2006,09,12,03,06,12.80
2006,09,12,03,07,12.80
2006,09,12,03,08,12.80
2006,09,12,03,09,12.80
2006,09,12,03,10,12.80
2006,09,12,03,11,12.80
2006,09,12,03,12,12.80
2006,09,12,03,13,12.80
2006,09,12,03,14,12.70
2006,09,12,03,15,12.70
2006,09,12,03,16,12.70
2006,09,12,03,17,12.70
2006,09,12,03,18,12.70
2006,09,12,03,19,12.70
2006,09,12,03,20,12.70
2006,09,12,03,21,12.60
2006,09,12,03,22,12.60
2006,09,12,03,23,12.60
2006,09,12,03,24,12.60
2006,09,12,03,25,12.60
2006,09,12,03,26,12.60
2006,09,12,03,27,12.50
2006,09,12,03,28,12.50
2006,09,12,03,29,12.50
2006,09,12,03,30,12.50
2006,09,12,03,31,12.50
2006,09,12,03,32,12.50
2006,09,12,03,33,12.50
2006,09,12,03,34,12.50
2006,09,12,03,35,12.50
2006,09,12,03,36,12.50
2006,09,12,03,37,12.50
2006,09,12,03,38,12.50
2006,09,12,03,39,12.50
2006,09,12,03,40,12.50
2006,09,12,03,41,12.50
2006,09,12,03,42,12.40
2006,09,12,03,43,12.40
2006,09,12,03,44,12.40
2006,09,12,03,45,12.40
2006,09,12,03,46,12.40
2006,09,12,03,47,12.40
2006,09,12,03,48,12.40
2006,09,12,03,49,12.40
2006,09,12,03,50,12.40
2006,09,12,03,51,12.40
2006,09,12,03,52,12.40
2006,09,12,03,53,12.40
2006,09,12,03,54,12.40
2006,09,12,03,55,12.40
2006,09,12,03,56,12.40
2006,09,12,03,57,12.40
2006,09,12,03,58,12.40
2006,09,12,03,59,12.40
2006,09,12,04,00,12.40
2006,09,12,04,01,12.40
2006,09,12,04,02,12.40
2006,09,12,04,03,12.40
2006,09,12,04,04,12.40
2006,09,12,04,05,12.40
2006,09,12,04,06,12.40
2006,09,12,04,07,12.30
2006,09,12,04,08,12.30
2006,09,12,04,09,12.40
2006,09,12,04,10,12.40
2006,09,12,04,11,12.40
2006,09,12,04,12,12.40
2006,09,12,04,13,12.40
2006,09,12,04,14,12.40
2006,09,12,04,15,12.40
2006,09,12,04,16,12.40
2006,09,12,04,17,12.40
2006,09,12,04,18,12.40
2006,09,12,04,19,12.40
2006,09,12,04,20,12.40
2006,09,12,04,21,12.40
2006,09,12,04,22,12.30
2006,09,12,04,23,12.30
2006,09,12,04,24,12.30
2006,09,12,04,25,12.30
2006,09,12,04,26,12.30
2006,09,12,04,27,12.30
2006,09,12,04,28,12.30
2006,09,12,04,29,12.30
2006,09,12,04,30,12.30
2006,09,12,04,31,12.30
2006,09,12,04,32,12.30
2006,09,12,04,33,12.30
2006,09,12,04,34,12.30
2006,09,12,04,35,12.30
2006,09,12,04,36,12.30
2006,09,12,04,37,12.30
2006,09,12,04,38,12.30
2006,09,12,04,39,12.30
2006,09,12,04,40,12.30
2006,09,12,04,41,12.30
2006,09,12,04,42,12.30
2006,09,12,04,43,12.30
2006,09,12,04,44,12.30
2006,09,12,04,45,12.30
2006,09,12,04,46,12.20
2006,09,12,04,47,12.20
2006,09,12,04,48,12.20
2006,09,12,04,49,12.20
2006,09,12,04,50,12.20
2006,09,12,04,51,12.20
2006,09,12,04,52,12.20
2006,09,12,04,53,12.20
2006,09,12,04,54,12.20
2006,09,12,04,55,12.10
2006,09,12,04,56,12.10
2006,09,12,04,57,12.10
2006,09,12,04,58,12.10
2006,09,12,04,59,12.10
2006,09,12,05,00,12.10
2006,09,12,05,01,12.10
2006,09,12,05,02,12.10
2006,09,12,05,03,12.10
2006,09,12,05,04,12.10
2006,09,12,05,05,12.00
2006,09,12,05,06,12.00
2006,09,12,05,07,12.00
2006,09,12,05,08,12.00
2006,09,12,05,09,12.00
2006,09,12,05,10,12.00
2006,09,12,05,11,12.00
2006,09,12,05,12,12.00
2006,09,12,05,13,11.90
2006,09,12,05,14,11.90
2006,09,12,05,15,11.90
2006,09,12,05,16,11.90
2006,09,12,05,17,11.90
2006,09,12,05,18,11.90
2006,09,12,05,19,11.90
2006,09,12,05,20,11.90
2006,09,12,05,21,11.90
2006,09,12,05,22,11.90
2006,09,12,05,23,11.90
2006,09,12,05,24,11.80
2006,09,12,05,25,11.80
2006,09,12,05,26,11.80
2006,09,12,05,27,11.80
2006,09,12,05,28,11.80
2006,09,12,05,29,11.80
2006,09,12,05,30,11.80
2006,09,12,05,31,11.80
2006,09,12,05,32,11.80
2006,09,12,05,33,11.80
2006,09,12,05,34,11.80
2006,09,12,05,35,11.80
2006,09,12,05,36,11.80
2006,09,12,05,37,11.80
2006,09,12,05,38,11.80
2006,09,12,05,39,11.80
2006,09,12,05,40,11.80
2006,09,12,05,41,11.80
2006,09,12,05,42,11.80
2006,09,12,05,43,11.80
2006,09,12,05,44,11.80
2006,09,12,05,45,11.80
2006,09,12,05,46,11.80
2006,09,12,05,47,11.80
2006,09,12,05,48,11.80
2006,09,12,05,49,11.80
2006,09,12,05,50,11.80
2006,09,12,05,51,11.80
2006,09,12,05,52,11.80
2006,09,12,05,53,11.80
2006,09,12,05,54,11.80
2006,09,12,05,55,11.80
2006,09,12,05,56,11.80
2006,09,12,05,57,11.80
2006,09,12,05,58,11.80
2006,09,12,05,59,11.80
2006,09,12,06,00,11.80
2006,09,12,06,01,11.80
2006,09,12,06,02,11.80
2006,09,12,06,03,11.70
2006,09,12,06,04,11.70
2006,09,12,06,05,11.70
2006,09,12,06,06,11.70
2006,09,12,06,07,11.70
2006,09,12,06,08,11.70
2006,09,12,06,09,11.70
2006,09,12,06,10,11.70
2006,09,12,06,11,11.70
2006,09,12,06,12,11.70
2006,09,12,06,13,11.70
2006,09,12,06,14,11.70
2006,09,12,06,15,11.70
2006,09,12,06,16,11.70
2006,09,12,06,17,11.70
2006,09,12,06,18,11.70
2006,09,12,06,19,11.70
2006,09,12,06,20,11.70
2006,09,12,06,21,11.70
2006,09,12,06,22,11.70
2006,09,12,06,23,11.70
2006,09,12,06,24,11.80
2006,09,12,06,25,11.80
2006,09,12,06,26,11.80
2006,09,12,06,27,11.80
2006,09,12,06,28,11.70
2006,09,12,06,29,11.70
2006,09,12,06,30,11.70
2006,09,12,06,31,11.70
2006,09,12,06,32,11.70
2006,09,12,06,33,11.70
2006,09,12,06,34,11.70
2006,09,12,06,35,11.70
2006,09,12,06,36,11.70
2006,09,12,06,37,11.70
2006,09,12,06,38,11.70
2006,09,12,06,39,11.70
2006,09,12,06,40,11.70
2006,09,12,06,41,11.70
2006,09,12,06,42,11.80
2006,09,12,06,43,11.80
2006,09,12,06,44,11.80
2006,09,12,06,45,11.80
2006,09,12,06,46,11.80
2006,09,12,06,47,11.80
2006,09,12,06,48,11.80
2006,09,12,06,49,11.80
2006,09,12,06,50,11.80
2006,09,12,06,51,11.80
2006,09,12,06,52,11.80
2006,09,12,06,53,11.90
2006,09,12,06,54,11.90
2006,09,12,06,55,11.90
2006,09,12,06,56,11.90
2006,09,12,06,57,11.90
2006,09,12,06,58,12.00
2006,09,12,06,59,12.00
2006,09,12,07,00,12.00
2006,09,12,07,01,12.00
2006,09,12,07,02,12.00
2006,09,12,07,03,12.00
2006,09,12,07,04,12.00
2006,09,12,07,05,12.00
2006,09,12,07,06,12.10
2006,09,12,07,07,12.10
2006,09,12,07,08,12.10
2006,09,12,07,09,12.10
2006,09,12,07,10,12.20
2006,09,12,07,11,12.20
2006,09,12,07,12,12.20
2006,09,12,07,13,12.30
2006,09,12,07,14,12.30
2006,09,12,07,15,12.30
2006,09,12,07,16,12.30
2006,09,12,07,17,12.30
2006,09,12,07,18,12.40
2006,09,12,07,19,12.40
2006,09,12,07,20,12.50
2006,09,12,07,21,12.50
2006,09,12,07,22,12.50
2006,09,12,07,23,12.60
2006,09,12,07,24,12.60
2006,09,12,07,25,12.60
2006,09,12,07,26,12.60
2006,09,12,07,27,12.70
2006,09,12,07,28,12.70
2006,09,12,07,29,12.70
2006,09,12,07,30,12.80
2006,09,12,07,31,12.80
2006,09,12,07,32,12.80
2006,09,12,07,33,12.80
2006,09,12,07,34,12.80
2006,09,12,07,35,12.90
2006,09,12,07,36,12.90
2006,09,12,07,37,12.90
2006,09,12,07,38,12.90
2006,09,12,07,39,13.00
2006,09,12,07,40,13.00
2006,09,12,07,41,13.00
2006,09,12,07,42,13.00
2006,09,12,07,43,13.10
2006,09,12,07,44,13.10
2006,09,12,07,45,13.10
2006,09,12,07,46,13.10
2006,09,12,07,47,13.20
2006,09,12,07,48,13.20
2006,09,12,07,49,13.20
2006,09,12,07,50,13.20
2006,09,12,07,51,13.20
2006,09,12,07,52,13.30
2006,09,12,07,53,13.30
2006,09,12,07,54,13.30
2006,09,12,07,55,13.30
2006,09,12,07,56,13.30
2006,09,12,07,57,13.30
2006,09,12,07,58,13.30
2006,09,12,07,59,13.30
2006,09,12,08,00,13.30
2006,09,12,08,01,13.40
2006,09,12,08,02,13.40
2006,09,12,08,03,13.40
2006,09,12,08,04,13.40
2006,09,12,08,05,13.40
2006,09,12,08,06,13.40
2006,09,12,08,07,13.40
2006,09,12,08,08,13.40
2006,09,12,08,09,13.40
2006,09,12,08,10,13.30
2006,09,12,08,11,13.40
2006,09,12,08,12,13.40
2006,09,12,08,13,13.40
2006,09,12,08,14,13.50
2006,09,12,08,15,13.60
2006,09,12,08,16,13.60
2006,09,12,08,17,13.70
2006,09,12,08,18,13.70
2006,09,12,08,19,13.70
2006,09,12,08,20,13.80
2006,09,12,08,21,13.80
2006,09,12,08,22,13.80
2006,09,12,08,23,13.90
2006,09,12,08,24,13.90
2006,09,12,08,25,13.90
2006,09,12,08,26,14.00
2006,09,12,08,27,14.00
2006,09,12,08,28,14.00
2006,09,12,08,29,14.10
2006,09,12,08,30,14.10
2006,09,12,08,31,14.20
2006,09,12,08,32,14.20
2006,09,12,08,33,14.30
2006,09,12,08,34,14.40
2006,09,12,08,35,14.50
2006,09,12,08,36,14.60
2006,09,12,08,37,14.60
2006,09,12,08,38,14.70
2006,09,12,08,39,14.70
2006,09,12,08,40,14.80
2006,09,12,08,41,14.80
2006,09,12,08,42,14.80
2006,09,12,08,43,15.00
2006,09,12,08,44,15.10
2006,09,12,08,45,15.20
2006,09,12,08,46,15.30
2006,09,12,08,47,15.30
2006,09,12,08,48,15.40
2006,09,12,08,49,15.50
2006,09,12,08,50,15.50
2006,09,12,08,51,15.50
2006,09,12,08,52,15.60
2006,09,12,08,53,15.70
2006,09,12,08,54,15.80
2006,09,12,08,55,15.90
2006,09,12,08,56,16.00
2006,09,12,08,57,16.10
2006,09,12,08,58,16.30
2006,09,12,08,59,16.40
2006,09,12,09,00,16.50
2006,09,12,09,01,16.70
2006,09,12,09,02,16.80
2006,09,12,09,03,16.90
2006,09,12,09,04,17.00
2006,09,12,09,05,17.10
2006,09,12,09,06,17.20
2006,09,12,09,07,17.30
2006,09,12,09,08,17.30
2006,09,12,09,09,17.30
2006,09,12,09,10,17.30
2006,09,12,09,11,17.30
2006,09,12,09,12,17.30
2006,09,12,09,13,17.30
2006,09,12,09,14,17.30
2006,09,12,09,15,17.30
2006,09,12,09,16,17.30
2006,09,12,09,17,17.30
2006,09,12,09,18,17.30
2006,09,12,09,19,17.30
2006,09,12,09,20,17.40
2006,09,12,09,21,17.40
2006,09,12,09,22,17.40
2006,09,12,09,23,17.40
2006,09,12,09,24,17.50
2006,09,12,09,25,17.50
2006,09,12,09,26,17.50
2006,09,12,09,27,17.50
2006,09,12,09,28,17.40
2006,09,12,09,29,17.40
2006,09,12,09,30,17.40
2006,09,12,09,31,17.30
2006,09,12,09,32,17.30
2006,09,12,09,33,17.20
2006,09,12,09,34,17.10
2006,09,12,09,35,17.10
2006,09,12,09,36,17.00
2006,09,12,09,37,17.00
2006,09,12,09,38,17.10
2006,09,12,09,39,17.10
2006,09,12,09,40,17.10
2006,09,12,09,41,17.10
2006,09,12,09,42,17.10
2006,09,12,09,43,17.20
2006,09,12,09,44,17.20
2006,09,12,09,45,17.30
2006,09,12,09,46,17.40
2006,09,12,09,47,17.40
2006,09,12,09,48,17.50
2006,09,12,09,49,17.60
2006,09,12,09,50,17.70
2006,09,12,09,51,17.80
2006,09,12,09,52,17.80
2006,09,12,09,53,17.90
2006,09,12,09,54,17.90
2006,09,12,09,55,17.90
2006,09,12,09,56,18.00
2006,09,12,09,57,18.10
2006,09,12,09,58,18.10
2006,09,12,09,59,18.10
2006,09,12,10,00,18.10
2006,09,12,10,01,18.10
2006,09,12,10,02,18.10
2006,09,12,10,03,17.90
2006,09,12,10,04,17.90
2006,09,12,10,05,17.90
2006,09,12,10,06,17.90
2006,09,12,10,07,17.80
2006,09,12,10,08,17.80
2006,09,12,10,09,17.70
2006,09,12,10,10,17.70
2006,09,12,10,11,17.70
2006,09,12,10,12,17.60
2006,09,12,10,13,17.60
2006,09,12,10,14,17.60
2006,09,12,10,15,17.70
2006,09,12,10,16,17.70
2006,09,12,10,17,17.70
2006,09,12,10,18,17.70
2006,09,12,10,19,17.70
2006,09,12,10,20,17.70
2006,09,12,10,21,17.70
2006,09,12,10,22,17.80
2006,09,12,10,23,17.90
2006,09,12,10,24,17.90
2006,09,12,10,25,17.90
2006,09,12,10,26,17.90
2006,09,12,10,27,17.90
2006,09,12,10,28,17.90
2006,09,12,10,29,17.90
2006,09,12,10,30,17.90
2006,09,12,10,31,17.90
2006,09,12,10,32,17.80
2006,09,12,10,33,17.70
2006,09,12,10,34,17.60
2006,09,12,10,35,17.60
2006,09,12,10,36,17.50
2006,09,12,10,37,17.50
2006,09,12,10,38,17.40
2006,09,12,10,39,17.30
2006,09,12,10,40,17.20
2006,09,12,10,41,17.00
2006,09,12,10,42,17.00
2006,09,12,10,43,16.90
2006,09,12,10,44,16.90
2006,09,12,10,45,16.90
2006,09,12,10,46,17.00
2006,09,12,10,47,17.10
2006,09,12,10,48,17.20
2006,09,12,10,49,17.30
2006,09,12,10,50,17.30
2006,09,12,10,51,17.30
2006,09,12,10,52,17.40
2006,09,12,10,53,17.40
2006,09,12,10,54,17.40
2006,09,12,10,55,17.40
2006,09,12,10,56,17.40
2006,09,12,10,57,17.40
2006,09,12,10,58,17.40
2006,09,12,10,59,17.30
2006,09,12,11,00,17.30
2006,09,12,11,01,17.30
2006,09,12,11,02,17.30
2006,09,12,11,03,17.30
2006,09,12,11,04,17.40
2006,09,12,11,05,17.50
2006,09,12,11,06,17.60
2006,09,12,11,07,17.60
2006,09,12,11,08,17.60
2006,09,12,11,09,17.70
2006,09,12,11,10,17.70
2006,09,12,11,11,17.70
2006,09,12,11,12,17.70
2006,09,12,11,13,17.70
2006,09,12,11,14,17.70
2006,09,12,11,15,17.70
2006,09,12,11,16,17.60
2006,09,12,11,17,17.70
2006,09,12,11,18,17.70
2006,09,12,11,19,17.80
2006,09,12,11,20,17.80
2006,09,12,11,21,17.90
2006,09,12,11,22,17.90
2006,09,12,11,23,18.00
2006,09,12,11,24,18.10
2006,09,12,11,25,18.20
2006,09,12,11,26,18.30
2006,09,12,11,27,18.40
2006,09,12,11,28,18.40
2006,09,12,11,29,18.40
2006,09,12,11,30,18.40
2006,09,12,11,31,18.50
2006,09,12,11,32,18.50
2006,09,12,11,33,18.50
2006,09,12,11,34,18.60
2006,09,12,11,35,18.70
2006,09,12,11,36,18.70
2006,09,12,11,37,18.80
2006,09,12,11,38,18.90
2006,09,12,11,39,18.90
2006,09,12,11,40,18.90
2006,09,12,11,41,18.90
2006,09,12,11,42,18.90
2006,09,12,11,43,18.80
2006,09,12,11,44,18.70
2006,09,12,11,45,18.70
2006,09,12,11,46,18.70
2006,09,12,11,47,18.70
2006,09,12,11,48,18.60
2006,09,12,11,49,18.60
2006,09,12,11,50,18.70
2006,09,12,11,51,18.80
2006,09,12,11,52,18.90
2006,09,12,11,53,18.90
2006,09,12,11,54,19.10
2006,09,12,11,55,19.10
2006,09,12,11,56,19.20
2006,09,12,11,57,19.30
2006,09,12,11,58,19.30
2006,09,12,11,59,19.40
2006,09,12,12,00,19.60
2006,09,12,12,01,19.70
2006,09,12,12,02,19.80
2006,09,12,12,03,19.90
2006,09,12,12,04,19.90
2006,09,12,12,05,19.90
2006,09,12,12,06,19.90
2006,09,12,12,07,19.90
2006,09,12,12,08,19.90
2006,09,12,12,09,20.00
2006,09,12,12,10,20.10
2006,09,12,12,11,20.20
2006,09,12,12,12,20.10
2006,09,12,12,13,20.00
2006,09,12,12,14,19.90
2006,09,12,12,15,19.90
2006,09,12,12,16,19.90
2006,09,12,12,17,19.80
2006,09,12,12,18,19.70
2006,09,12,12,19,19.60
2006,09,12,12,20,19.60
2006,09,12,12,21,19.60
2006,09,12,12,22,19.60
2006,09,12,12,23,19.60
2006,09,12,12,24,19.60
2006,09,12,12,25,19.60
2006,09,12,12,26,19.60
2006,09,12,12,27,19.60
2006,09,12,12,28,19.60
2006,09,12,12,29,19.60
2006,09,12,12,30,19.60
2006,09,12,12,31,19.50
2006,09,12,12,32,19.50
2006,09,12,12,33,19.60
2006,09,12,12,34,19.60
2006,09,12,12,35,19.70
2006,09,12,12,36,19.70
2006,09,12,12,37,19.60
2006,09,12,12,38,19.70
2006,09,12,12,39,19.70
2006,09,12,12,40,19.80
2006,09,12,12,41,19.80
2006,09,12,12,42,19.80
2006,09,12,12,43,19.80
2006,09,12,12,44,19.80
2006,09,12,12,45,19.80
2006,09,12,12,46,19.80
2006,09,12,12,47,19.90
2006,09,12,12,48,19.90
2006,09,12,12,49,20.00
2006,09,12,12,50,20.20
2006,09,12,12,51,20.20
2006,09,12,12,52,20.30
2006,09,12,12,53,20.30
2006,09,12,12,54,20.40
2006,09,12,12,55,20.50
2006,09,12,12,56,20.60
2006,09,12,12,57,20.60
2006,09,12,12,58,20.50
2006,09,12,12,59,20.50
2006,09,12,13,00,20.50
2006,09,12,13,01,20.60
2006,09,12,13,02,20.70
2006,09,12,13,03,20.80
2006,09,12,13,04,20.70
2006,09,12,13,05,20.60
2006,09,12,13,06,20.50
2006,09,12,13,07,20.40
2006,09,12,13,08,20.30
2006,09,12,13,09,20.20
2006,09,12,13,10,20.20
2006,09,12,13,11,20.10
2006,09,12,13,12,20.00
2006,09,12,13,13,19.80
2006,09,12,13,14,19.60
2006,09,12,13,15,19.60
2006,09,12,13,16,19.50
2006,09,12,13,17,19.50
2006,09,12,13,18,19.60
2006,09,12,13,19,19.60
2006,09,12,13,20,19.50
2006,09,12,13,21,19.50
2006,09,12,13,22,19.60
2006,09,12,13,23,19.80
2006,09,12,13,24,19.80
2006,09,12,13,25,19.80
2006,09,12,13,26,19.80
2006,09,12,13,27,19.80
2006,09,12,13,28,19.80
2006,09,12,13,29,19.70
2006,09,12,13,30,19.80
2006,09,12,13,31,19.90
2006,09,12,13,32,19.90
2006,09,12,13,33,19.90
2006,09,12,13,34,20.10
2006,09,12,13,35,20.20
2006,09,12,13,36,20.20
2006,09,12,13,37,20.20
2006,09,12,13,38,20.20
2006,09,12,13,39,20.30
2006,09,12,13,40,20.40
2006,09,12,13,41,20.50
2006,09,12,13,42,20.60
2006,09,12,13,43,20.70
2006,09,12,13,44,20.80
2006,09,12,13,45,20.90
2006,09,12,13,46,20.80
2006,09,12,13,47,20.80
2006,09,12,13,48,20.80
2006,09,12,13,49,20.80
2006,09,12,13,50,20.80
2006,09,12,13,51,20.60
2006,09,12,13,52,20.50
2006,09,12,13,53,20.40
2006,09,12,13,54,20.50
2006,09,12,13,55,20.50
2006,09,12,13,56,20.40
2006,09,12,13,57,20.40
2006,09,12,13,58,20.40
2006,09,12,13,59,20.30
2006,09,12,14,00,20.30
2006,09,12,14,01,20.20
2006,09,12,14,02,20.20
2006,09,12,14,03,20.30
2006,09,12,14,04,20.30
2006,09,12,14,05,20.30
2006,09,12,14,06,20.40
2006,09,12,14,07,20.50
2006,09,12,14,08,20.60
2006,09,12,14,09,20.50
2006,09,12,14,10,20.50
2006,09,12,14,11,20.60
2006,09,12,14,12,20.50
2006,09,12,14,13,20.40
2006,09,12,14,14,20.40
2006,09,12,14,15,20.40
2006,09,12,14,16,20.20
2006,09,12,14,17,19.90
2006,09,12,14,18,19.80
2006,09,12,14,19,19.60
2006,09,12,14,20,19.40
2006,09,12,14,21,19.40
2006,09,12,14,22,19.30
2006,09,12,14,23,19.20
2006,09,12,14,24,19.10
2006,09,12,14,25,19.10
2006,09,12,14,26,18.90
2006,09,12,14,27,19.00
2006,09,12,14,28,19.10
2006,09,12,14,29,19.10
2006,09,12,14,30,19.20
2006,09,12,14,31,19.30
2006,09,12,14,32,19.30
2006,09,12,14,33,19.20
2006,09,12,14,34,19.10
2006,09,12,14,35,18.90
2006,09,12,14,36,18.90
2006,09,12,14,37,18.90
2006,09,12,14,38,19.00
2006,09,12,14,39,19.10
2006,09,12,14,40,19.10
2006,09,12,14,41,19.20
2006,09,12,14,42,19.20
2006,09,12,14,43,19.30
2006,09,12,14,44,19.20
2006,09,12,14,45,19.20
2006,09,12,14,46,19.20
2006,09,12,14,47,19.20
2006,09,12,14,48,19.30
2006,09,12,14,49,19.30
2006,09,12,14,50,19.30
2006,09,12,14,51,19.30
2006,09,12,14,52,19.10
2006,09,12,14,53,19.10
2006,09,12,14,54,19.10
2006,09,12,14,55,19.00
2006,09,12,14,56,18.90
2006,09,12,14,57,18.90
2006,09,12,14,58,19.10
2006,09,12,14,59,19.10
2006,09,12,15,00,19.00
2006,09,12,15,01,18.70
2006,09,12,15,02,18.70
2006,09,12,15,03,18.60
2006,09,12,15,04,18.50
2006,09,12,15,05,18.40
2006,09,12,15,06,18.30
2006,09,12,15,07,18.20
2006,09,12,15,08,18.20
2006,09,12,15,09,18.10
2006,09,12,15,10,18.00
2006,09,12,15,11,18.00
2006,09,12,15,12,17.90
2006,09,12,15,13,17.90
2006,09,12,15,14,18.00
2006,09,12,15,15,18.10
2006,09,12,15,16,18.20
2006,09,12,15,17,18.40
2006,09,12,15,18,18.50
2006,09,12,15,19,18.60
2006,09,12,15,20,18.60
2006,09,12,15,21,18.70
2006,09,12,15,22,18.60
2006,09,12,15,23,18.50
2006,09,12,15,24,18.60
2006,09,12,15,25,18.70
2006,09,12,15,26,18.90
2006,09,12,15,27,19.00
2006,09,12,15,28,19.10
2006,09,12,15,29,19.10
2006,09,12,15,30,19.10
2006,09,12,15,31,19.00
2006,09,12,15,32,18.60
2006,09,12,15,33,18.40
2006,09,12,15,34,18.20
2006,09,12,15,35,18.30
2006,09,12,15,36,18.40
2006,09,12,15,37,18.50
2006,09,12,15,38,18.70
2006,09,12,15,39,18.80
2006,09,12,15,40,18.90
2006,09,12,15,41,19.00
2006,09,12,15,42,19.10
2006,09,12,15,43,19.20
2006,09,12,15,44,19.20
2006,09,12,15,45,19.20
2006,09,12,15,46,19.20
2006,09,12,15,47,19.10
2006,09,12,15,48,19.10
2006,09,12,15,49,19.10
2006,09,12,15,50,19.10
2006,09,12,15,51,19.10
2006,09,12,15,52,19.10
2006,09,12,15,53,19.10
2006,09,12,15,54,19.10
2006,09,12,15,55,19.10
2006,09,12,15,56,19.10
2006,09,12,15,57,19.10
2006,09,12,15,58,19.10
2006,09,12,15,59,19.10
2006,09,12,16,00,19.10
2006,09,12,16,01,19.20
2006,09,12,16,02,19.30
2006,09,12,16,03,19.40
2006,09,12,16,04,19.40
2006,09,12,16,05,19.40
2006,09,12,16,06,19.40
2006,09,12,16,07,19.40
2006,09,12,16,08,19.40
2006,09,12,16,09,19.50
2006,09,12,16,10,19.60
2006,09,12,16,11,19.70
2006,09,12,16,12,19.90
2006,09,12,16,13,20.20
2006,09,12,16,14,20.50
2006,09,12,16,15,20.70
2006,09,12,16,16,21.00
2006,09,12,16,17,21.20
2006,09,12,16,18,21.40
2006,09,12,16,19,21.60
2006,09,12,16,20,21.70
2006,09,12,16,21,21.90
2006,09,12,16,22,22.00
2006,09,12,16,23,22.00
2006,09,12,16,24,22.10
2006,09,12,16,25,22.20
2006,09,12,16,26,22.20
2006,09,12,16,27,22.30
2006,09,12,16,28,22.40
2006,09,12,16,29,22.40
2006,09,12,16,30,22.50
2006,09,12,16,31,22.50
2006,09,12,16,32,22.50
2006,09,12,16,33,22.40
2006,09,12,16,34,22.30
2006,09,12,16,35,22.20
2006,09,12,16,36,22.10
2006,09,12,16,37,22.00
2006,09,12,16,38,21.90
2006,09,12,16,39,21.90
2006,09,12,16,40,21.80
2006,09,12,16,41,21.80
2006,09,12,16,42,21.80
2006,09,12,16,43,21.80
2006,09,12,16,44,21.80
2006,09,12,16,45,21.80
2006,09,12,16,46,21.70
2006,09,12,16,47,21.60
2006,09,12,16,48,21.60
2006,09,12,16,49,21.60
2006,09,12,16,50,21.50
2006,09,12,16,51,21.50
2006,09,12,16,52,21.60
2006,09,12,16,53,21.60
2006,09,12,16,54,21.60
2006,09,12,16,55,21.60
2006,09,12,16,56,21.60
2006,09,12,16,57,21.60
2006,09,12,16,58,21.60
2006,09,12,16,59,21.60
2006,09,12,17,00,21.60
2006,09,12,17,01,21.60
2006,09,12,17,02,21.60
2006,09,12,17,03,21.60
2006,09,12,17,04,21.60
2006,09,12,17,05,21.60
2006,09,12,17,06,21.60
2006,09,12,17,07,21.60
2006,09,12,17,08,21.60
2006,09,12,17,09,21.60
2006,09,12,17,10,21.70
2006,09,12,17,11,21.70
2006,09,12,17,12,21.70
2006,09,12,17,13,21.70
2006,09,12,17,14,21.60
2006,09,12,17,15,21.60
2006,09,12,17,16,21.60
2006,09,12,17,17,21.60
2006,09,12,17,18,21.60
2006,09,12,17,19,21.60
2006,09,12,17,20,21.60
2006,09,12,17,21,21.70
2006,09,12,17,22,21.70
2006,09,12,17,23,21.70
2006,09,12,17,24,21.70
2006,09,12,17,25,21.80
2006,09,12,17,26,21.80
2006,09,12,17,27,21.80
2006,09,12,17,28,21.70
2006,09,12,17,29,21.70
2006,09,12,17,30,21.60
2006,09,12,17,31,21.50
2006,09,12,17,32,21.30
2006,09,12,17,33,21.30
2006,09,12,17,34,21.20
2006,09,12,17,35,21.20
2006,09,12,17,36,21.20
2006,09,12,17,37,21.10
2006,09,12,17,38,21.10
2006,09,12,17,39,21.10
2006,09,12,17,40,21.10
2006,09,12,17,41,21.20
2006,09,12,17,42,21.10
2006,09,12,17,43,21.10
2006,09,12,17,44,21.10
2006,09,12,17,45,21.00
2006,09,12,17,46,21.00
2006,09,12,17,47,20.90
2006,09,12,17,48,20.80
2006,09,12,17,49,20.70
2006,09,12,17,50,20.70
2006,09,12,17,51,20.70
2006,09,12,17,52,20.60
2006,09,12,17,53,20.60
2006,09,12,17,54,20.50
2006,09,12,17,55,20.40
2006,09,12,17,56,20.40
2006,09,12,17,57,20.40
2006,09,12,17,58,20.30
2006,09,12,17,59,20.30
2006,09,12,18,00,20.20
2006,09,12,18,01,20.20
2006,09,12,18,02,20.20
2006,09,12,18,03,20.10
2006,09,12,18,04,20.00
2006,09,12,18,05,19.90
2006,09,12,18,06,19.90
2006,09,12,18,07,19.90
2006,09,12,18,08,19.90